UAL32A KIAH-KLGA

Flight info

Callsign UAL32A
Flight time N/A
Altitude 35000
Route GUMBY3 GUSTI Q22 BURGG Q60 HURTS PROUD2
Aircraft B738/M-SDE2E3FGHIRWXY/LB1

Departure

Time 2026-05-05 14:45
Airport George Bush Intercontinental Airport (KIAH)

Arrival

Time N/A
Airport LaGuardia Airport (KLGA)
Time Latitude Longitude Altitude Speed Heading
2026-05-05 14:23 29.98901 -95.34202 105 ft 0 kts 118°
2026-05-05 14:32 29.98909 -95.34223 106 ft 4 kts 104°
2026-05-05 14:32 29.98912 -95.34253 106 ft 4 kts 80°
2026-05-05 14:32 29.98904 -95.34283 105 ft 4 kts 61°
2026-05-05 14:32 29.98907 -95.34280 106 ft 4 kts 52°
2026-05-05 14:33 29.98929 -95.34263 106 ft 4 kts 21°
2026-05-05 14:33 29.98953 -95.34261 106 ft 2 kts
2026-05-05 14:33 29.98954 -95.34261 106 ft 0 kts
2026-05-05 14:37 29.98955 -95.34261 106 ft 1 kts
2026-05-05 14:38 29.98971 -95.34260 106 ft 5 kts
2026-05-05 14:38 29.99029 -95.34260 106 ft 9 kts 360°
2026-05-05 14:38 29.99081 -95.34292 106 ft 10 kts 292°
2026-05-05 14:38 29.99085 -95.34401 106 ft 18 kts 270°
2026-05-05 14:39 29.99084 -95.34575 106 ft 23 kts 269°
2026-05-05 14:39 29.99084 -95.34757 105 ft 22 kts 270°
2026-05-05 14:39 29.99087 -95.34935 106 ft 22 kts 272°
2026-05-05 14:39 29.99091 -95.35107 106 ft 21 kts 270°
2026-05-05 14:40 29.99090 -95.35272 106 ft 20 kts 269°
2026-05-05 14:40 29.99089 -95.35435 106 ft 20 kts 270°
2026-05-05 14:40 29.99083 -95.35581 106 ft 13 kts 274°
2026-05-05 14:40 29.99083 -95.35628 106 ft 1 kts 242°
2026-05-05 14:41 29.99075 -95.35627 106 ft 2 kts 160°
2026-05-05 14:41 29.99050 -95.35612 106 ft 5 kts 152°
2026-05-05 14:41 29.99007 -95.35585 106 ft 9 kts 152°
2026-05-05 14:41 29.98942 -95.35546 106 ft 12 kts 152°
2026-05-05 14:42 29.98886 -95.35537 106 ft 9 kts 211°
2026-05-05 14:42 29.98847 -95.35608 106 ft 12 kts 248°
2026-05-05 14:42 29.98829 -95.35664 105 ft 0 kts 251°
2026-05-05 14:42 29.98828 -95.35667 105 ft 0 kts 251°
2026-05-05 14:43 29.98827 -95.35670 105 ft 0 kts 251°
2026-05-05 14:43 29.98826 -95.35674 105 ft 1 kts 251°
2026-05-05 14:43 29.98816 -95.35704 107 ft 8 kts 247°
2026-05-05 14:43 29.98781 -95.35767 107 ft 10 kts 231°
2026-05-05 14:44 29.98733 -95.35753 108 ft 10 kts 149°
2026-05-05 14:44 29.98633 -95.35693 107 ft 33 kts 152°
2026-05-05 14:44 29.98217 -95.35437 106 ft 101 kts 152°
2026-05-05 14:44 29.97423 -95.34955 107 ft 156 kts 152°
2026-05-05 14:45 29.96387 -95.34318 571 ft 169 kts 153°
2026-05-05 14:45 29.95501 -95.33522 1478 ft 164 kts 134°
2026-05-05 14:45 29.94992 -95.32231 1935 ft 195 kts 109°
2026-05-05 14:45 29.94755 -95.30579 2210 ft 218 kts 107°
2026-05-05 14:46 29.94455 -95.28785 2441 ft 238 kts 108°